OBJECT H, 60242

Orbit data source: Space-Track

You're viewing an Uncataloged Satellite

Recently launched and/or uncataloged satellites may have evolving metadata. Metadata may include but not limited to: Owner, Maufacturer, Bus, Motor, and Mission.

OBJECT H, 60242 is a satellite in LEO that was launched on Tue, 09 Jul 2024 UTC via an ARIANE 62 launch vehicle from the French Guiana (FRGUI). Unknown objects in Earth's orbit typically refer to objects detected orbiting the Earth but have not yet been identified or cataloged. These objects could be anything from previously untracked satellites, spent rocket stages, debris from satellite collisions, or even natural meteoroids temporarily captured by Earth's gravity.

Loading next visibility...
Identifier
60242, 2024-128H
Orbit
LEO
Country
Flag of TBDTBD
Related business
Flag of DEPlanetary Transportation Systems GmbH (DE)
Manufacturer
PTS
Mission
Operational Commercial Technology
Bus & Motor
CUBESAT 12U, Unknown motor
Mass
24 kg wet, 24 kg dry
Launch date (UTC)
2024-07-09 (1 year ago)
Launch vehicle
ARIANE 62
Launch site
French Guiana (FRGUI)
Object type
Unknown
Shape & HBR
Box, 0.1 m
Radar Cross Section
0.080 m², Medium (>0.1 m² and < 1m²)

Expand to show TLE details & history
Last TLE update: 1 day ago

TLE from 1 day ago
0 OBJECT H
1 60242U 24128H   25260.11679277  .00008392  00000-0  55751-3 0  9994
2 60242  61.9798  88.9863 0056580  75.8289 284.9081 15.06591892 65224
Epoch: 2025-09-17T02:48Z
TLE epoch observation values (Epoch: 2025-09-17T02:48:10.895Z)
Latitude
-0.00001°
Longitude
50.64355°
Altitude
538.523 km
Speed
7.599 km/s
True Right ascension
05h 55m 56s
True Declination
0° 00' 00"
Sunlit
Object was in daylight at epoch
Visualization orbit readout
Latitude
Unknown
Longitude
Unknown
Altitude
Unknown
Speed
Unknown
Apparent Right ascension
Unknown
Apparent Declination
Unknown
Sunlit
N/A
Visualization observer readout
Local Sidereal Time
19:10:58
Azimuth
Unknown
Elevation
Unknown
Doppler factor
Unknown
Orbital elements
Apogee altitude
584.727 km
Perigee altitude
506.379 km
Semi-major axis
6,923.69 km
Eccentricity
0.00566
Inclination
61.9798°
RAAN
88.9863°
Arg. of periapsis
75.8289°
True anomaly
284.28044°
Mean anomaly
284.9081°
Eccentric anomaly
284.59438°
Mean motion
3.76736 °/min
Orbital period
95.56 mins
BSTAR
0.00055751
Loading maneuver chart data...
Computing Atmospheric mass density...
Loading historical data...
Loading historical data...
Loading historical data...
Loading historical data...
Loading historical data...
Loading historical data...
Loading historical data...

Documentation

Showing up to 5 results
|